LUCAS (JDRS-1)

Last updated on Wed Oct 29 2025 00:02:50 GMT+0000 (Coordinated Universal Time)

1 47202U 20089A 25300.70988873 -.00000225 00000+0 00000+0 0 9992 2 47202 0.0626 92.5674 0002687 126.8614 163.2204 1.00274756 18082
UTC large
Height (km)
Speed (km/s)
/
Latitude / Longitude
Inclination (degrees)
Orbital Period (minutes)
Azimuth
Elevation
Range (km)
Doppler Factor

Next 0 passes for location: London (51.5072 / 0.1276)

Sorry there are no passes over London.